This is the latest recevied weather packets stored in our database for station/object KQ4JKJ. If no packets are shown the sender has not sent any weather packets the latest 10 day(s).
| Time | Temp. | Humidity | Pressure | Rain* | Wind** | Luminosity | Snow |
|---|---|---|---|---|---|---|---|
| 1777931151 | 25° C | 65% | 1009.4 hPa | 0 mm | - | 250 W/m² | - |
| 1777930848 | 25° C | 66% | 1009.5 hPa | 0 mm | - | 269 W/m² | - |
| 1777930544 | 25° C | 66% | 1009.5 hPa | 0 mm | - | 291 W/m² | - |
| 1777930241 | 24.44° C | 67% | 1009.7 hPa | 0 mm | - | 208 W/m² | - |
| 1777929937 | 25.56° C | 64% | 1009.7 hPa | 0 mm | - | 88 W/m² | - |
| 1777929635 | 25.56° C | 62% | 1009.9 hPa | 0 mm | - | 311 W/m² | - |
| 1777929331 | 25.56° C | 62% | 1009.8 hPa | 0 mm | - | 359 W/m² | - |
| 1777929029 | 25° C | 63% | 1009.7 hPa | 0 mm | - | 366 W/m² | - |
| 1777928726 | 25° C | 63% | 1009.7 hPa | 0 mm | - | 383 W/m² | - |
| 1777928422 | 25° C | 64% | 1009.9 hPa | 0 mm | - | 460 W/m² | - |
| 1777928120 | 25.56° C | 63% | 1009.9 hPa | 0 mm | - | 166 W/m² | - |
| 1777927818 | 25° C | 65% | 1010 hPa | 0 mm | - | 488 W/m² | - |
| 1777927516 | 25.56° C | 64% | 1010 hPa | 0 mm | - | 172 W/m² | - |
| 1777927215 | 25.56° C | 63% | 1010.2 hPa | 0 mm | - | 381 W/m² | - |
| 1777926912 | 25.56° C | 63% | 1010.1 hPa | 0 mm | - | 318 W/m² | - |
| 1777926609 | 25.56° C | 63% | 1010.1 hPa | 0 mm | - | 427 W/m² | - |
| 1777926305 | 25° C | 66% | 1010 hPa | 0 mm | - | 599 W/m² | - |
| 1777926001 | 24.44° C | 67% | 1010.1 hPa | 0 mm | - | 240 W/m² | - |
| 1777925699 | 24.44° C | 67% | 1010.1 hPa | 0 mm | - | 236 W/m² | - |
| 1777925396 | 25° C | 66% | 1010.3 hPa | 0 mm | - | 268 W/m² | - |
| 1777925093 | 24.44° C | 67% | 1010 hPa | 0 mm | - | 231 W/m² | - |
| 1777924789 | 24.44° C | 67% | 1010.2 hPa | 0 mm | - | 261 W/m² | - |
| 1777924485 | 24.44° C | 66% | 1010.4 hPa | 0 mm | - | 228 W/m² | - |
| 1777924182 | 25° C | 66% | 1010.1 hPa | 0 mm | - | 185 W/m² | - |
| 1777923878 | 25° C | 65% | 1010.2 hPa | 0 mm | - | 602 W/m² | - |
* Rain latest hour (hover to see other rain measurements)
** Current wind speed in m/s (hover to see current wind gust speed)